Regional Weather Roundup
Issued by NWS Newport/Morehead, NC

Current Version | Previous Version | Graphics & Text | Print | Product List | Glossary Off
Versions: 1 2 3 4 5 6 7 8 9 10 11 12 13 14 15 16 17 18 19 20 21 22 23 24 25 26 27 28 29 30 31 32 33 34 35 36 37 38 39 40 41 42 43 44 45 46 47 48 49 50

000
ASUS42 KMHX 300112
RWRMHX
WEATHER ROUNDUP FOR EASTERN NORTH CAROLINA
NATIONAL WEATHER SERVICE NEWPORT/MOREHEAD CITY NC
900 PM EDT SUN MAR 29 2015

NOTE: "FAIR" INDICATES FEW OR NO CLOUDS BELOW 12,000 FEET
WITH NO SIGNIFICANT WEATHER AND/OR OBSTRUCTIONS TO VISIBILITY

NCZ015>017-031-032-045>047-102-103-300200-
NORTH COAST

CITY           SKY/WX    TMP DP  RH WIND       PRES   REMARKS
EDENTON        CLEAR     38  23  55 CALM      30.31S
ELIZABETH CITY CLEAR     37  20  50 CALM      30.31S
KITTY HAWK     CLEAR     33  22  64 SE3       30.31S
MANTEO         CLEAR     34  23  63 CALM      30.33S

$$

NCZ045>047-081-094-103-104-300200-
CENTRAL COAST

CITY           SKY/WX    TMP DP  RH WIND       PRES   REMARKS
FRISCO         CLEAR     33  24  69 E5        30.33F
SWANQUARTER      N/A     37 N/A N/A E2        30.27F

$$

NCZ095-097-098-100-101-300200-
SOUTHERN COAST

CITY           SKY/WX    TMP DP  RH WIND       PRES   REMARKS
BEAUFORT       CLEAR     39  28  64 CALM      30.33F
CEDAR ISLAND     N/A     37 N/A N/A S3        30.36S
JACKSONVILLE   CLEAR     40  25  55 S5        30.32F
PINEY ISLAND   CLEAR    N/A N/A N/A SE7       30.32F
WILMINGTON     CLEAR     40  30  67 S5        30.33S


$$

NCZ011>013-027>030-043-044-078>080-089-090>093-098-300200-
COASTAL PLAIN

CITY           SKY/WX    TMP DP  RH WIND       PRES   REMARKS
AHOSKIE        CLEAR     32  27  80 CALM      30.29F
CLINTON        CLEAR     38  28  65 CALM      30.32S
ELIZABETHTOWN  CLEAR     40  28  63 CALM      30.32S
GOLDSBORO      CLEAR     42  21  42 S5        30.28F
GREENVILLE     CLEAR     41  23  48 CALM      30.31F
HAVELOCK       CLEAR     38  23  55 CALM      30.34S
KENANSVILLE    CLEAR     35  26  69 CALM      30.33S
KINSTON        CLEAR     36  28  75 CALM      30.31F
NEW BERN       CLEAR     37  23  56 CALM      30.34R
RICHLANDS      CLEAR     36  27  69 CALM      30.33F
ROCKY MOUNT    PTCLDY    37  25  61 S3        30.28F
WASHINGTON     CLEAR     38  26  63 CALM      30.32S
WHITEVILLE     CLEAR     40  27  60 CALM      30.32F

$$

AMZ130-135-150-152-154-156-158-170-250-252-270-ANZ085-086-088-633-658-670-300200-
MARINE OBSERVATIONS

STATION/POSITION TIME  TEMP    WIND        PRES    WAVE   SWELL
                       AIR SEA DIR/SP/G            HT/PER HT/PER
                 (UTC) (F)     (DEG/KT/KT) (MB)    (FT/S) (FT/S)
CHESAPEAKE LIGHT 0000   38      80/  3/  3 1026.4
64 E VA BEACH    0050   40 54  320/  8/ 12 1026.1    5/10   5/10
DUCK             0000   37 43  130/  6/  7 1025.8
2 E DUCK         0011      43                N/A     3/ 6
10 NE DUCK       NOT AVBL
OREGON INLET     0000   36 45  100/  2/  3 1027.2
HATTERAS CG      0000      49   CALM  /  3 1027.9
CAPE LOOKOUT     0100   45     260/  1/  1 1026.8
BEAUFORT LAB     0000      53  220/  4/  5 1026.2
27 SE WRIGHTSVLE 0000   44 64  200/  6/  6 1028.4
5 SE WRIGHTSVLE  0000   47 56  200/ 10/ 12 1027.2
225 S CAPE HAT   0050   53 68  360/ 14/ 17 1027.7    7/ 8   5/ 8
41 SE CHARLESTON 0050   53 68   70/  4/  8 1027.9    3/ 8   3/ 8

$$



USA.gov is the U.S. government's official web portal to all federal, state and local government web resources and services.